Regional Weather Roundup
Issued by NWS

Home | Current Version | Previous Version | Graphics & Text | Print | Product List | Glossary On
Versions: 1 2 3 4 5 6 7 8 9 10 11 12 13 14 15 16 17 18 19 20 21 22 23 24 25 26 27 28 29 30 31 32 33 34 35 36 37 38 39 40 41 42 43 44 45 46 47 48 49 50
000
ASUS43 KIND 230109
RWRIN

WEATHER ROUNDUP FOR INDIANA
NATIONAL WEATHER SERVICE INDIANAPOLIS IN
900 PM EDT SAT APR 22 2017

NOTE: "FAIR" INDICATES FEW OR NO CLOUDS BELOW 12,000 FEET WITH NO
SIGNIFICANT WEATHER AND/OR OBSTRUCTIONS TO VISIBILITY.

* - STATION DOES NOT REPORT WEATHER SUCH AS PRECIPITATION OR FOG.

+ - STATION NOT QUALITY CONTROLLED BY THE NATIONAL WEATHER SERVICE.
    USE DATA WITH CAUTION...ESPECIALLY DEWPOINT AND RELATIVE
    HUMIDITY OBSERVATIONS.

INZ001>003-010>013-019-020-230200-
NORTHWEST INDIANA

CITY           SKY/WX    TMP DP  RH WIND       PRES   REMARKS
GARY /AIRPORT/ CLEAR     46  32  57 NE7       30.16F
KNOX *+        CLEAR     46   3  17 N12       30.13S
LA PORTE +     CLEAR     46  28  48 N12       30.14S
MICHIGAN CITY+ CLEAR     43  30  61 N5        30.16S
MONTICELLO +   CLEAR     55  31  40 N9        30.09R
RENSSELAER +   CLEAR     48  28  46 N13       30.12S
VALPARAISO     CLEAR     46  29  51 N7        30.14S

$$

LMZ046-743>745-230200-
SOUTHERN LAKE MICHIGAN

STATION/POSITION TIME  TEMP    WIND        PRES    WAVE
                       AIR SEA DIR/SP/G            HT
                 (UTC) (F)     (DEG/KT/KT) (MB)    (FT)
BURNS HARBOR     0040   46      40/  7/  8 1021.7S
MICHIGAN CITY    0040   45      30/ 10/ 11   N/A

$$

INZ004-005-014>016-021>024-230200-
NORTH CENTRAL INDIANA

CITY           SKY/WX    TMP DP  RH WIND       PRES   REMARKS
GOSHEN         CLEAR     54  30  40 NE5       30.11S
LOGANSPORT +   CLOUDY    50  36  57 E5        30.11R
PERU/GRISSOM   CLOUDY    53  36  51 E7        30.08S
ROCHESTER +    CLEAR     57  30  35 N5        30.11R
SOUTH BEND     CLEAR     47  28  47 N12       30.13F
WARSAW +       CLEAR     54  32  43 N6        30.10S

$$

INZ006>009-017-018-025>027-230200-
NORTHEAST INDIANA

CITY           SKY/WX    TMP DP  RH WIND       PRES   REMARKS
ANGOLA *+      CLEAR     54  36  50 N3        30.11S
AUBURN +       PTCLDY    52  34  50 CALM      30.11R
FORT WAYNE     PTCLDY    50  34  54 E3        30.11R
HUNTINGTON +   CLOUDY    51  35  53 E3        30.10S
KENDALLVILLE + CLEAR     52  34  50 NE3       30.11S

$$

INZ028-029-035-036-043>045-051>053-230200-
WEST CENTRAL INDIANA

CITY           SKY/WX    TMP DP  RH WIND       PRES   REMARKS
CRAWFORDSVL +  PTCLDY    48  37  63 NE8       30.08S
GREENCASTLE +  PTCLDY    50  32  50 NE12      30.07R
LAFAYETTE      CLOUDY    53  36  52 NE8       30.09R
TERRE HAUTE    CLEAR     51  35  54 NE10      30.06R

$$

INZ030>032-037>040-046>048-054>057-064-065-230200-
CENTRAL INDIANA

CITY           SKY/WX    TMP DP  RH WIND       PRES   REMARKS
CP ATTERBURY + CLEAR     52  34  50 NE12      30.05R
COLUMBUS       CLEAR     50  34  53 NE12      30.04R
FRANKFORT +    PTCLDY    55  35  47 E7        30.10S
GREENWOOD *+   CLEAR     53  31  43 NE13G18   30.06R
INDIANAPOLIS   MOCLDY    52  30  43 NE21G26   30.07R
-EAGLE CREEK   CLEAR     52  31  44 NE7       30.07R
KOKOMO +       PTCLDY    50  37  61 NE8       30.10S
MARION +       PTCLDY    48  37  66 E6        30.10S
MT COMFORT *+  CLEAR     48  32  53 NE13      30.08R
SHELBYVILLE    CLEAR     52  32  46 NE10      30.05R
ZIONSVILLE +   CLEAR     50  33  51 NE9       30.09R

$$

INZ033-034-041-042-049-050-058-059-230200-
EAST CENTRAL INDIANA

CITY           SKY/WX    TMP DP  RH WIND       PRES   REMARKS
MUNCIE         PTCLDY    51  33  50 NE8       30.09R
RICHMOND +     CLEAR     46  34  61 NE10      30.07R

$$

INZ060-061-067>069-081>083-085>088-230200-
SOUTHWEST INDIANA

CITY           SKY/WX    TMP DP  RH WIND       PRES   REMARKS
EVANSVILLE     MOCLDY    53  40  61 NE9       30.01R
HUNTINGBURG *+ MOCLDY    52  41  66 NE9       30.01R
WASHINGTON +   CLEAR     53  36  51 MISG      30.02R

$$

INZ062-063-066-070>080-084-089>092-230200-
SOUTH CENTRAL AND SOUTHEAST INDIANA

CITY           SKY/WX    TMP DP  RH WIND       PRES   REMARKS
BLOOMINGTON    CLEAR     51  35  54 NE7       30.03R
MADISON *+     CLEAR     48  37  66 NE6       30.04R
NORTH VERNON + CLEAR     52  37  58 NE7       30.04R

$$





USA.gov is the U.S. government's official web portal to all federal, state and local government web resources and services.